Location: Unspecified
(0.0000°N, 0.0000°E)
Time: 09:59:30
(UTC+00:00)

Vanguard 1 - Pass Details

Date: 15 December 2017
Orbit: 649 x 3834 km, 34.3° (Epoch: 17 January)

Event Time Altitude Azimuth Distance (km) Brightness Sun altitude
Rises 09:07:44 0° 273° (W) 7,920 14.3 43.2°
Reaches altitude 10° 09:15:18 10° 285° (WNW) 6,933 14.1 44.7°
Maximum altitude 09:31:45 24° 331° (NNW) 5,292 13.7 48.1°
Drops below altitude 10° 09:44:46 10° 20° (NNE) 5,390 13.8 50.7°
Sets 09:49:41 0° 34° (NE) 5,896 14.0 51.6°
